Bluefield, WV

9:26 PM EDT on October 16, 2017 (GMT -0400)
Mercer County

Weather History for KBLF - February, 2012

Change the Weather History Date:

Wednesday, February 22, 2012

  Actual Average Record
Temperature  
Mean Temperature 46 °F 39 °F  
Max Temperature 53 °F 47 °F 67 °F (1992)
Min Temperature 39 °F 30 °F -8 °F (1963)
Degree Days  
Heating Degree Days 19 26  
Month to date heating degree days 572 621  
Since 1 July heating degree days 2867 3341  
Cooling Degree Days 0 0  
Month to date cooling degree days 0 0  
Year to date cooling degree days 0 0  
Moisture  
Dew Point 36 °F    
Average Humidity 59    
Maximum Humidity 83    
Minimum Humidity 35    
Precipitation  
Precipitation 0.90 in 0.10 in 1.49 in (2003)
Month to date precipitation 3.44 2.14  
Year to date precipitation 6.14 5.04  
Snow  
Snow 0.00 in - - ()
Month to date snowfall 10.4  
Since 1 July snowfall 19.0  
Snow Depth 0.00 in    
Sea Level Pressure  
Sea Level Pressure 29.70 in    
Wind  
Wind Speed 11 mph (WSW)    
Max Wind Speed 30 mph    
Max Gust Speed 41 mph    
Visibility 8 miles    
Events Rain , Thunderstorm    
T = Trace of Precipitation, MM = Missing Value Source: NWS Daily Summary

Daily Weather History Graph

Daily Weather History Graph

Search for Another Location

Airport or City:

Trip Planner

Search our weather history database for the weather conditions in past years. The results will help you decide how hot, cold, wet, or windy it might be!

Date:

Astronomy

Feb. 22, 2012 Rise Set
Actual Time 7:05 AM EST 6:11 PM EST
Civil Twilight 6:39 AM EST 6:37 PM EST
Nautical Twilight 6:09 AM EST 7:08 PM EST
Astronomical Twilight 5:39 AM EST 7:38 PM EST
Moon 7:05 AM EST (2/22) 7:13 PM EST (2/22)
Length of Visible Light 11h 58m
Length of Day
11h 05m
New Moon, 1% of the Moon is Illuminated
Feb 22
New Moon
Feb 29
First Quarter
Mar 8
Full
Mar 14
Last Quarter
Mar 22
New

Hourly Weather History & Observations

Time (EST) Temp. Windchill Dew Point Humidity Pressure Visibility Wind Dir Wind Speed Gust Speed Precip Events Conditions
12:52 AM 46.0 °F 40.6 °F 35.1 °F 66% 29.88 in 10.0 mi West 11.5 mph - N/A   Clear
1:52 AM 45.0 °F 39.3 °F 35.1 °F 68% 29.88 in 10.0 mi West 11.5 mph - N/A   Mostly Cloudy
2:52 AM 44.1 °F 40.1 °F 34.0 °F 68% 29.86 in 10.0 mi West 6.9 mph - N/A   Partly Cloudy
3:33 AM 44.6 °F 40.2 °F 33.8 °F 66% 29.88 in 10.0 mi West 8.1 mph - N/A   Mostly Cloudy
3:45 AM 42.8 °F 38.0 °F 33.8 °F 70% 29.87 in 10.0 mi West 8.1 mph - N/A   Scattered Clouds
3:52 AM 43.0 °F 38.8 °F 34.0 °F 71% 29.84 in 10.0 mi West 6.9 mph - N/A   Partly Cloudy
4:52 AM 42.1 °F 37.7 °F 34.0 °F 73% 29.85 in 10.0 mi West 6.9 mph - N/A   Clear
5:52 AM 41.0 °F 35.2 °F 33.1 °F 73% 29.86 in 10.0 mi West 9.2 mph - N/A   Clear
6:52 AM 39.9 °F 34.5 °F 33.1 °F 77% 29.85 in 10.0 mi West 8.1 mph - N/A   Clear
7:52 AM 41.0 °F 38.0 °F 33.1 °F 73% 29.84 in 10.0 mi West 4.6 mph - N/A   Scattered Clouds
8:52 AM 45.0 °F 39.3 °F 30.9 °F 58% 29.83 in 10.0 mi West 11.5 mph - N/A   Clear
9:52 AM 48.9 °F - 25.0 °F 39% 29.79 in 10.0 mi WSW 12.7 mph 24.2 mph N/A   Clear
10:52 AM 52.0 °F - 24.1 °F 34% 29.77 in 10.0 mi WSW 15.0 mph 25.3 mph N/A   Clear
11:52 AM 52.0 °F - 26.1 °F 37% 29.75 in 10.0 mi WSW 13.8 mph - N/A   Overcast
12:52 PM 48.9 °F - 32.0 °F 52% 29.74 in 10.0 mi WSW 20.7 mph 28.8 mph 0.00 in Rain Light Rain
1:28 PM 44.6 °F 38.4 °F 35.6 °F 71% 29.75 in 10.0 mi WSW 12.7 mph 20.7 mph 0.00 in Rain Light Rain
1:52 PM 44.1 °F 37.4 °F 37.0 °F 76% 29.72 in 10.0 mi SW 13.8 mph 20.7 mph 0.00 in Rain Light Rain
2:52 PM 48.0 °F - 39.0 °F 71% 29.67 in 10.0 mi SW 15.0 mph 31.1 mph 0.00 in   Overcast
3:52 PM 48.9 °F - 39.0 °F 69% 29.64 in 10.0 mi SW 8.1 mph 19.6 mph N/A   Overcast
4:52 PM 48.9 °F - 39.9 °F 71% 29.62 in 10.0 mi WSW 10.4 mph - N/A   Overcast
5:52 PM 50.0 °F - 41.0 °F 71% 29.60 in 10.0 mi WSW 6.9 mph - N/A   Overcast
6:31 PM 48.2 °F - 42.8 °F 82% 29.60 in 7.0 mi SW 12.7 mph 19.6 mph 0.04 in Rain Light Rain
6:45 PM 48.2 °F - 42.8 °F 82% 29.62 in 2.5 mi WNW 29.9 mph 41.4 mph 0.11 in Rain Heavy Rain
6:52 PM 46.9 °F - 41.0 °F 80% 29.61 in 2.5 mi West 19.6 mph 41.4 mph 0.14 in Rain Rain
6:54 PM 46.4 °F 39.0 °F 39.2 °F 76% 29.61 in 3.0 mi WNW 19.6 mph 33.4 mph 0.01 in Rain Rain
7:25 PM 46.4 °F 41.9 °F 41.0 °F 81% 29.61 in 6.0 mi West 9.2 mph - 0.08 in Rain Rain
7:41 PM 46.4 °F 41.9 °F 39.2 °F 76% 29.61 in 5.0 mi West 9.2 mph 21.9 mph 0.14 in Rain Rain
7:52 PM 46.0 °F 41.0 °F 39.9 °F 79% 29.60 in 6.0 mi West 10.4 mph 19.6 mph 0.18 in Rain Rain
8:52 PM 44.1 °F 38.1 °F 39.0 °F 82% 29.59 in 4.0 mi SW 11.5 mph 27.6 mph 0.31 in Rain Heavy Rain
9:02 PM 44.6 °F 38.4 °F 39.2 °F 81% 29.60 in 5.0 mi SW 12.7 mph 25.3 mph 0.04 in Rain Rain
9:29 PM 44.6 °F 36.9 °F 39.2 °F 81% 29.62 in 7.0 mi WSW 18.4 mph 26.5 mph 0.14 in Rain , Thunderstorm Rain
9:44 PM 42.8 °F 36.2 °F 37.4 °F 81% 29.62 in 7.0 mi West 12.7 mph 24.2 mph 0.20 in Rain Rain
9:52 PM 44.1 °F 37.7 °F 39.0 °F 82% 29.61 in 7.0 mi WSW 12.7 mph - 0.22 in Rain Rain
10:20 PM 42.8 °F 37.0 °F 37.4 °F 81% 29.58 in 10.0 mi SW 10.4 mph - 0.05 in Rain Light Rain
10:52 PM 42.1 °F 37.1 °F 37.0 °F 82% 29.56 in 10.0 mi WSW 8.1 mph - 0.05 in   Overcast
11:27 PM 42.8 °F 37.0 °F 37.4 °F 81% 29.59 in 10.0 mi West 10.4 mph - N/A   Mostly Cloudy
11:37 PM 42.8 °F 37.0 °F 37.4 °F 81% 29.59 in 10.0 mi WSW 10.4 mph - N/A   Mostly Cloudy
11:52 PM 44.1 °F 38.6 °F 37.0 °F 76% 29.56 in 10.0 mi WSW 10.4 mph - N/A   Scattered Clouds